Home   Weather   Arviat   Past weeks

Flag for Canada Past Weather in Arviat, Nunavut, Canada — Yesterday and Last 2 Weeks

Now
48 °F

Overcast.


Feels Like: 42 °F
Forecast: 46 / 51 °F
Wind: 15 mph from Northeast

Location: Arviat Airport

Current Time: Aug 30, 2016 at 10:03:15 AM

Latest Report: Aug 30, 2016 at 9:00 AM


Visibility: 12 mi

Pressure: 30.20 "Hg

Humidity: 94%

Dew Point: 46 °F

Location of ArviatLocation

Past Weather in Arviat — Graph

°F

Arviat Temperature Yesterday

Maximum temperature yesterday: 50 °F (at 3:00 PM)
Minimum temperature yesterday: 46 °F (at 12:00 AM)
Average temperature yesterday: 47 °F

High & Low Weather Summary for the Past Weeks

 TemperatureHumidityPressure
High66 °F (Aug 24, 5:00 PM)100% (Aug 16, 7:00 PM)30.20 "Hg (Aug 16, 7:00 PM)
Low39 °F (Aug 26, 6:00 AM)42% (Aug 24, 2:00 PM)29.59 "Hg (Aug 21, 9:00 AM)
Average50 °F90%29.83 "Hg
* Reported Aug 15 9:00 AM — Aug 30 9:00 AM, Arviat, Weather by CustomWeather, © 2016

Note: Actual official high and low records may vary slightly from our data, if they occured in-between our weather recording intervals... More about our weather records

Advertising

Arviat Weather History for the Previous 24 Hours

Scroll right to see more
 ConditionsComfort  
Time TempWeatherWind HumidityBarometerVisibility
9:00 AM
Tue, Aug 30
48 °FOvercast.15 mph94%30.20 "Hg12 mi
8:00 AM48 °FOvercast.14 mph94%30.19 "Hg12 mi
7:00 AM48 °FOvercast.18 mph94%30.18 "Hg12 mi
6:00 AM48 °FOvercast.18 mph94%30.16 "Hg9 mi
5:57 AM48 °FOvercast.18 mph94%30.16 "Hg9 mi
5:00 AM48 °FLow clouds.17 mph94%30.16 "Hg9 mi
4:00 AM48 °FLow clouds.20 mph94%30.14 "Hg9 mi
3:00 AM48 °FMostly cloudy.20 mph94%30.12 "Hg9 mi
2:00 AM48 °FLow clouds.17 mph94%30.11 "Hg9 mi
1:00 AM48 °FLow clouds.20 mph94%30.09 "Hg9 mi
12:00 AM48 °FMostly cloudy.18 mph94%30.08 "Hg9 mi
11:00 PM
Mon, Aug 29
48 °FLow clouds.21 mph94%30.08 "Hg8 mi
10:00 PM48 °FLow clouds.18 mph94%30.08 "Hg9 mi
9:00 PM48 °FMostly cloudy.20 mph94%30.07 "Hg9 mi
8:00 PM48 °FLow clouds.20 mph94%30.06 "Hg9 mi
7:00 PM48 °FMostly cloudy.22 mph94%30.05 "Hg9 mi
6:00 PM48 °FMore clouds than sun.21 mph94%30.04 "Hg9 mi
5:52 PM48 °FMore clouds than sun.23 mph94%30.03 "Hg9 mi
5:00 PM48 °FMostly cloudy.23 mph94%30.02 "Hg15 mi
4:00 PM48 °FMostly cloudy.21 mph94%30.02 "Hg10 mi
3:00 PM50 °FCloudy.23 mph88%30.01 "Hg10 mi
2:00 PM48 °FOvercast.23 mph94%30.02 "Hg10 mi
1:00 PM48 °FOvercast.22 mph94%30.02 "Hg10 mi
12:00 PM48 °FOvercast.22 mph94%30.03 "Hg10 mi
11:00 AM48 °FOvercast.18 mph94%30.04 "Hg12 mi
10:00 AM48 °FOvercast.22 mph87%30.04 "Hg10 mi
Weather by CustomWeather, © 2016

See weather overviewHow to use our weather pages